[[{"header":{"parameterUnit":"m.s-1","parameterCategory":1,"la1":30.2991,"la2":30.254,"lo1":-89.0895,"lo2":-89.0444,"dy":0.0017,"dx":0.0017,"nx":28,"ny":28,"refTime":"2023-09-16T03:00:00:Z","depth":0,"parameterNumber":2,"parameterNumberName":"U-component_of_WINDS"},"data":[0,0,0,0,0,0,0,0,0,0,0,0,0,0,0,0,0,0,0,0,0,0,0,0,0,0,0,0,0,0,0,0,0,0,0,0,0,0,0,0,0,0,0,0,0,0,0,0,0,0,0,0,0,0,0,0,0,0,-1.2408,-1.2409,0,-1.2476,-1.2477,-1.2478,-1.2447,-1.2446,-1.2444,-1.2442,-1.2512,-1.2516,-1.2519,0,0,0,0,0,0,0,0,0,0,0,0,0,-1.2251,-1.2254,-1.2408,-1.2409,-1.241,-1.2476,-1.2477,-1.2478,-1.2448,-1.2446,-1.2443,-1.2442,-1.2511,-1.2515,-1.2519,0,0,0,0,0,0,0,0,0,0,0,0,0,-1.232,-1.2255,-1.2408,-1.2403,-1.2403,-1.2476,-1.2477,-1.2478,-1.2448,-1.2445,-1.2443,-1.2441,-1.251,-1.2515,-1.252,-1.2603,0,0,-1.2536,-1.2538,0,0,0,0,0,0,0,0,-1.2316,-1.2325,-1.2403,-1.2403,-1.2403,-1.2451,-1.2448,-1.252,-1.2449,-1.2431,-1.2442,-1.2439,-1.2494,-1.25,-1.2519,-1.2606,-1.2609,-1.2536,-1.2539,-1.2542,-1.2543,0,0,0,0,0,0,0,-1.2311,-1.2322,-1.2435,-1.2404,-1.2404,-1.2397,-1.2404,-1.2461,-1.2476,-1.2432,-1.243,-1.2439,-1.2494,-1.2514,-1.252,-1.261,-1.2536,-1.2541,-1.2544,-1.2546,-1.2768,-1.2771,0,0,0,0,0,0,-1.2306,-1.2318,-1.2433,-1.2437,-1.2352,-1.2402,-1.2409,-1.2438,-1.2475,-1.2478,-1.2441,-1.2437,-1.2506,-1.2514,-1.2522,-1.2622,-1.2542,-1.2546,-1.2549,-1.2766,-1.2769,-1.2772,0,0,0,0,0,0,-1.2303,-1.2317,-1.243,-1.2377,-1.2391,-1.2407,-1.244,-1.2441,-1.2461,-1.2482,-1.2484,-1.2459,-1.2504,-1.2515,-1.2583,-1.2624,-1.2549,-1.2553,-1.2762,-1.2767,-1.2771,-1.2823,0,0,0,0,0,0,-1.2299,-1.2316,-1.2348,-1.2378,-1.2394,-1.249,-1.2442,-1.2444,-1.247,-1.2466,-1.2499,-1.2502,-1.2503,-1.2575,-1.2588,-1.263,-1.2557,-1.2759,-1.2764,-1.2769,-1.2817,-1.2828,-1.2837,0,0,0,0,0,-1.2293,-1.236,-1.2349,-1.2363,-1.2434,-1.2493,-1.2502,-1.2502,-1.2473,-1.2505,-1.2518,-1.2501,-1.2617,-1.2583,-1.2597,-1.2641,-1.2756,-1.2763,-1.2769,-1.2813,-1.2826,-1.2837,0,0,0,0,0,0,-1.2334,-1.2364,-1.2353,-1.2431,-1.2459,-1.2487,-1.2528,-1.2515,-1.2553,-1.2547,-1.2546,-1.2553,-1.2624,-1.2639,-1.26,-1.2723,-1.2682,-1.2692,-1.2711,-1.2724,-1.2734,-1.273,-1.2562,0,0,0,0,0,-1.2352,-1.2397,-1.242,-1.2487,-1.2502,-1.2512,-1.2538,-1.2535,-1.2565,-1.2577,-1.2595,-1.2624,-1.2667,-1.2696,-1.2736,-1.2818,-1.2826,-1.2855,-1.2865,-1.2874,-1.2883,-1.2928,-1.2941,-1.2793,-1.2793,-1.2793,0,0,-1.239,-1.2411,-1.244,-1.2496,-1.2517,-1.2564,-1.2523,-1.2574,-1.2609,-1.2584,-1.265,-1.2664,-1.2697,-1.2772,-1.2806,-1.2787,-1.2925,-1.2882,-1.2888,-1.2893,-1.2936,-1.295,-1.2962,-1.2797,-1.2796,-1.2796,0,0,-1.2483,-1.2504,-1.2562,-1.2585,-1.2618,-1.2624,-1.2638,-1.2668,-1.2676,-1.2742,-1.2725,-1.2765,-1.2839,-1.2864,-1.2886,-1.2986,-1.2972,-1.2999,-1.3053,-1.3097,-1.3108,-1.3119,-1.3156,-1.317,-1.3008,-1.3008,-1.3008,0,-1.2527,-1.2597,-1.2594,-1.2647,-1.2672,-1.2651,-1.271,-1.2732,-1.2777,-1.2795,-1.2771,-1.2864,-1.2884,-1.2966,-1.299,-1.3008,-1.3024,-1.2997,-1.3107,-1.3117,-1.3127,-1.3163,-1.3177,-1.3011,-1.3011,-1.301,-1.301,0,-1.2649,-1.2697,-1.274,-1.2785,-1.2814,-1.287,-1.2875,-1.2905,-1.2899,-1.2908,-1.2975,-1.2998,-1.3044,-1.3062,-1.3057,-1.3142,-1.3129,-1.3107,-1.3067,-1.3145,-1.3178,-1.3192,-1.3016,-1.3015,-1.3014,-1.3013,0,0,-1.2773,-1.2813,-1.2829,-1.2849,-1.2883,-1.2921,-1.2975,-1.3019,-1.3046,-1.3077,-1.3123,-1.3185,-1.3164,-1.3189,-1.3186,-1.3224,-1.3304,-1.3197,-1.3198,-1.3218,-1.3401,-1.342,-1.3436,-1.3294,-1.3296,-1.3298,-1.3399,0,-1.287,-1.2966,-1.2964,-1.3053,-1.3098,-1.3078,-1.3125,-1.3152,-1.3161,-1.32,-1.321,-1.3255,-1.3223,-1.3238,-1.3274,-1.3287,-1.3342,-1.3279,-1.3338,-1.334,-1.3333,-1.3453,-1.3473,-1.3568,-1.3412,-1.3414,-1.3416,0,-1.2998,-1.3033,-1.3127,-1.3154,-1.3173,-1.3216,-1.3256,-1.3294,-1.3323,-1.3326,-1.3354,-1.3344,-1.3399,-1.3355,-1.3431,-1.3389,-1.3412,-1.3422,-1.3425,-1.3433,-1.3385,-1.3466,-1.3598,-1.3613,-1.3436,-1.3435,-1.3433,0,-1.3081,-1.3151,-1.3217,-1.3234,-1.3267,-1.3298,-1.3313,-1.334,-1.3366,-1.3401,-1.3418,-1.3458,-1.3481,-1.3513,-1.3514,-1.3482,-1.3592,-1.3548,-1.3597,-1.3597,-1.3624,-1.3622,-1.3763,-1.3634,-1.3634,-1.3634,-1.3634,0,-1.3192,-1.325,-1.3255,-1.3295,-1.336,-1.3357,-1.3421,-1.3433,-1.3456,-1.3499,-1.3483,-1.3523,-1.3521,-1.3562,-1.3563,-1.3627,-1.3636,-1.3642,-1.3642,-1.3645,-1.3644,-1.3662,-1.3656,-1.3638,-1.3637,-1.3636,-1.3636,0,-1.3297,-1.3302,-1.3372,-1.3398,-1.3405,-1.3452,-1.3474,-1.3512,-1.3519,-1.3573,-1.3585,-1.3596,-1.3643,-1.3647,-1.3701,-1.3702,-1.3779,-1.3771,-1.377,-1.3769,-1.3819,-1.3816,-1.3978,-1.4,-1.3855,-1.3857,-1.3858,0,-1.3369,-1.3413,-1.3443,-1.3471,-1.3488,-1.3532,-1.3559,-1.3556,-1.3585,-1.362,-1.3655,-1.37,-1.3736,-1.3812,-1.3825,-1.3866,-1.386,-1.3914,-1.3866,-1.3868,-1.3863,-1.3861,-1.3866,-1.3924,-1.3926,-1.3927,-1.3928,0,-1.3496,-1.3496,-1.3535,-1.3576,-1.3609,-1.364,-1.367,-1.3693,-1.3694,-1.3727,-1.3774,-1.3803,-1.3857,-1.3903,-1.3943,-1.3958,-1.3944,-1.3942,-1.3956,-1.3961,-1.396,-1.3963,-1.3798,-1.3939,-1.3938,-1.3937,-1.3937,-1.3936,-1.3588,-1.3627,-1.3654,-1.3699,-1.372,-1.3748,-1.3786,-1.3797,-1.3837,-1.3882,-1.3877,-1.393,-1.3957,-1.4009,-1.4028,-1.4069,-1.4051,-1.4071,-1.4076,-1.4082,-1.4088,-1.3951,-1.4076,-1.4076,-1.4075,-1.4075,-1.4075,0,-1.3716,-1.3732,-1.3773,-1.3815,-1.385,-1.3832,-1.3863,-1.3894,-1.3941,-1.3967,-1.4003,-1.4058,-1.4101,-1.4116,-1.4159,-1.4189,-1.4183,-1.42,-1.4199,-1.4203,-1.4101,-1.4086,-1.4204,-1.4204,-1.4204,-1.4204,-1.4204,-1.4204,-1.3787,-1.3853,-1.3856,-1.3931,-1.3947,-1.3999,-1.4019,-1.4044,-1.4065,-1.4127,-1.4163,-1.4173,-1.4194,-1.4238,-1.4277,-1.428,-1.4297,-1.4318,-1.4319,-1.4223,-1.421,-1.4198,-1.4184,-1.4321,-1.4321,-1.4418,-1.4419,-1.4419]},{"header":{"parameterUnit":"m.s-1","parameterCategory":1,"la1":30.2991,"la2":30.254,"lo1":-89.0895,"lo2":-89.0444,"dy":0.0017,"dx":0.0017,"nx":28,"ny":28,"refTime":"2023-09-16T03:00:00:Z","depth":0,"parameterNumber":3,"parameterNumberName":"V-component_of_WINDS"},"data":[0,0,0,0,0,0,0,0,0,0,0,0,0,0,0,0,0,0,0,0,0,0,0,0,0,0,0,0,0,0,0,0,0,0,0,0,0,0,0,0,0,0,0,0,0,0,0,0,0,0,0,0,0,0,0,0,0,0,-4.9943,-4.9945,0,-5.0091,-5.0093,-5.0095,-5.0034,-5.0031,-5.0028,-5.0024,-5.0173,-5.018,-5.0187,0,0,0,0,0,0,0,0,0,0,0,0,0,-4.9606,-4.9613,-4.9943,-4.9945,-4.9947,-5.0091,-5.0093,-5.0095,-5.0035,-5.0031,-5.0027,-5.0023,-5.0171,-5.0179,-5.0188,0,0,0,0,0,0,0,0,0,0,0,0,0,-4.9753,-4.9615,-4.9943,-4.9934,-4.9935,-5.0091,-5.0093,-5.0096,-5.0036,-5.0031,-5.0025,-5.0021,-5.0168,-5.0178,-5.0189,-5.0361,0,0,-5.0222,-5.0227,0,0,0,0,0,0,0,0,-4.9745,-4.9766,-4.9934,-4.9935,-4.9936,-5.0039,-5.0029,-5.0184,-5.0037,-4.9998,-5.0024,-5.0018,-5.0133,-5.0146,-5.0185,-5.0368,-5.0374,-5.0223,-5.023,-5.0234,-5.0238,0,0,0,0,0,0,0,-4.9735,-4.9759,-5.0002,-4.9936,-4.9938,-4.9922,-4.9937,-5.0058,-5.0093,-5.0001,-4.9997,-5.0015,-5.0132,-5.0175,-5.0188,-5.0376,-5.0223,-5.0233,-5.0239,-5.0243,-5.0707,-5.0713,0,0,0,0,0,0,-4.9725,-4.9751,-4.9997,-5.0006,-4.9826,-4.9933,-4.995,-5.0011,-5.0091,-5.0098,-5.0019,-5.0012,-5.0159,-5.0176,-5.0193,-5.04,-5.0234,-5.0245,-5.0251,-5.0701,-5.0708,-5.0715,0,0,0,0,0,0,-4.9718,-4.9747,-4.9991,-4.9878,-4.9907,-4.9944,-5.0014,-5.0017,-5.006,-5.0105,-5.0111,-5.0057,-5.0156,-5.0178,-5.032,-5.0404,-5.0249,-5.0259,-5.0694,-5.0704,-5.0712,-5.0814,0,0,0,0,0,0,-4.9708,-4.9745,-4.9811,-4.9879,-4.9914,-5.0116,-5.0019,-5.0024,-5.0079,-5.007,-5.0142,-5.0149,-5.0153,-5.0304,-5.0331,-5.0416,-5.0268,-5.0687,-5.0698,-5.0709,-5.0804,-5.0826,-5.0844,0,0,0,0,0,-4.9696,-4.9834,-4.9815,-4.9845,-4.9997,-5.0121,-5.0141,-5.0144,-5.0086,-5.0152,-5.0182,-5.0147,-5.039,-5.0319,-5.0348,-5.0439,-5.0682,-5.0695,-5.0708,-5.0795,-5.0821,-5.0844,0,0,0,0,0,0,-4.9774,-4.9843,-4.9823,-4.9986,-5.0049,-5.0111,-5.0195,-5.0172,-5.0251,-5.024,-5.0239,-5.0256,-5.0402,-5.0434,-5.0354,-5.0609,-5.0527,-5.0547,-5.0583,-5.0609,-5.0629,-5.0618,-5.0277,0,0,0,0,0,-4.981,-4.9906,-4.996,-5.0099,-5.0132,-5.0158,-5.0212,-5.0209,-5.0273,-5.0299,-5.0339,-5.0402,-5.0492,-5.0552,-5.0638,-5.0808,-5.0822,-5.0884,-5.0904,-5.0921,-5.0938,-5.103,-5.1059,-5.0758,-5.0758,-5.0757,0,0,-4.9886,-4.9935,-4.9995,-5.0116,-5.0164,-5.0263,-5.0181,-5.0288,-5.0361,-5.0315,-5.0452,-5.0483,-5.0553,-5.071,-5.0781,-5.0741,-5.1024,-5.0938,-5.095,-5.0959,-5.1047,-5.1075,-5.11,-5.0767,-5.0765,-5.0764,0,0,-5.0074,-5.0121,-5.0243,-5.0292,-5.0366,-5.0383,-5.0412,-5.0478,-5.0498,-5.0635,-5.0603,-5.0688,-5.0845,-5.0896,-5.0943,-5.1151,-5.1121,-5.1178,-5.1285,-5.1375,-5.1399,-5.142,-5.1494,-5.1521,-5.1195,-5.1195,-5.1196,0,-5.0159,-5.0307,-5.0308,-5.0419,-5.0472,-5.0436,-5.0558,-5.0606,-5.0704,-5.0742,-5.0696,-5.0892,-5.0936,-5.1104,-5.1155,-5.1194,-5.1227,-5.1171,-5.1395,-5.1416,-5.1436,-5.1507,-5.1535,-5.1202,-5.1201,-5.1201,-5.12,0,-5.0407,-5.0511,-5.0599,-5.0696,-5.076,-5.0876,-5.0894,-5.0958,-5.0949,-5.097,-5.1111,-5.1163,-5.1259,-5.1298,-5.129,-5.1466,-5.1439,-5.1394,-5.1312,-5.1471,-5.1538,-5.1565,-5.1211,-5.1209,-5.1207,-5.1205,0,0,-5.065,-5.0745,-5.0778,-5.0822,-5.09,-5.098,-5.1093,-5.1188,-5.1244,-5.1312,-5.1408,-5.1541,-5.15,-5.1553,-5.155,-5.1629,-5.1791,-5.1575,-5.1577,-5.1614,-5.1988,-5.2022,-5.2053,-5.1772,-5.1777,-5.1781,-5.1982,0,-5.0845,-5.1046,-5.105,-5.1234,-5.133,-5.1296,-5.1395,-5.1454,-5.1477,-5.156,-5.1584,-5.1679,-5.1618,-5.165,-5.1726,-5.1755,-5.1866,-5.1741,-5.186,-5.1865,-5.1845,-5.2088,-5.2124,-5.2312,-5.2008,-5.2013,-5.2016,0,-5.1099,-5.1177,-5.1372,-5.1437,-5.1477,-5.1567,-5.1654,-5.1734,-5.1799,-5.181,-5.187,-5.1855,-5.197,-5.1884,-5.2043,-5.1958,-5.2006,-5.2028,-5.2035,-5.2047,-5.1951,-5.2108,-5.2372,-5.24,-5.2057,-5.2054,-5.2051,0,-5.1258,-5.1411,-5.1547,-5.1585,-5.1664,-5.1728,-5.1764,-5.1824,-5.1881,-5.1957,-5.1994,-5.2081,-5.213,-5.2198,-5.2207,-5.2143,-5.2367,-5.2281,-5.2379,-5.2379,-5.2428,-5.2425,-5.2705,-5.2459,-5.2458,-5.2458,-5.2457,0,-5.1476,-5.1596,-5.1619,-5.1703,-5.1837,-5.184,-5.1972,-5.2002,-5.2056,-5.2144,-5.212,-5.2203,-5.221,-5.2296,-5.2303,-5.2434,-5.2455,-5.2467,-5.2468,-5.247,-5.2469,-5.2503,-5.2491,-5.2465,-5.2463,-5.2462,-5.2461,0,-5.1675,-5.1696,-5.1842,-5.1905,-5.1924,-5.202,-5.2074,-5.2153,-5.2173,-5.2286,-5.2312,-5.2344,-5.2443,-5.2459,-5.2575,-5.258,-5.2737,-5.2724,-5.2716,-5.2714,-5.2812,-5.2803,-5.3124,-5.3166,-5.2891,-5.2894,-5.2896,0,-5.1814,-5.1906,-5.1979,-5.2037,-5.2077,-5.2171,-5.2229,-5.2234,-5.2296,-5.2377,-5.2447,-5.2544,-5.2623,-5.2783,-5.2816,-5.2904,-5.2894,-5.3,-5.2907,-5.2906,-5.2896,-5.2891,-5.29,-5.3018,-5.3021,-5.3024,-5.3026,0,-5.2057,-5.2063,-5.2148,-5.2238,-5.2308,-5.2379,-5.2445,-5.2493,-5.2508,-5.2578,-5.268,-5.2741,-5.286,-5.2957,-5.3045,-5.308,-5.3056,-5.3055,-5.3082,-5.3086,-5.3078,-5.3084,-5.2766,-5.3047,-5.3045,-5.3044,-5.3042,-5.3042,-5.2231,-5.2312,-5.2376,-5.2472,-5.2523,-5.2585,-5.2664,-5.2694,-5.278,-5.2878,-5.2876,-5.2988,-5.305,-5.3166,-5.3208,-5.3295,-5.326,-5.33,-5.331,-5.332,-5.333,-5.3063,-5.3311,-5.331,-5.331,-5.3309,-5.3309,0,-5.2474,-5.2514,-5.2603,-5.2697,-5.2772,-5.2743,-5.2815,-5.288,-5.2979,-5.304,-5.3117,-5.3235,-5.3328,-5.3368,-5.346,-5.3522,-5.3513,-5.3546,-5.3542,-5.3551,-5.3355,-5.3323,-5.3552,-5.3552,-5.3552,-5.3552,-5.3552,-5.3552,-5.261,-5.2745,-5.2758,-5.2917,-5.2956,-5.3067,-5.311,-5.3168,-5.3216,-5.3349,-5.3427,-5.3453,-5.3505,-5.36,-5.3685,-5.3694,-5.3729,-5.3768,-5.3772,-5.3589,-5.3564,-5.3541,-5.351,-5.3775,-5.3775,-5.396,-5.3962,-5.3963]}]]